C/2022 QE78 ( ATLAS )

Japanese version
Home page
Updated on September 4, 2024

---------------------------------------------------------------------

* Profile

Discovery Date August 27, 2022
Magnitude 19.4 mag
Discoverer Asteroid Terrestrial-Impact Last Alert System (ATLAS) search program

* Pictures

* Orbital Elements

Epoch 2024 Oct. 17.0 TT = JDT 2460600.5
T 2025 Sept. 10.58050 TT                                Rudenko
q   5.4778474            (2000.0)            P               Q
z  -0.0007892      Peri.    0.44843     -0.50421177     -0.69221380
 +/-0.0000010      Node   119.91923     +0.79045298     -0.61072728
e   1.0043230      Incl.   36.56524     +0.34778525     +0.38451560
>From 1241 observations 2022 Aug. 27-2024 Aug. 30, mean residual 0".4.

* Finding Charts

* Magnitudes Graph

        m1 = 0.0 + 5 log d + 14.0 log r

---------------------------------------------------------------------

The orbital elements are published on M.P.E.C. 2024-R10.
The charts are made with StellaNavigator Ver.10 (AstroArts).
The magnitudes graphs are made with Comet for Windows.

---------------------------------------------------------------------

Copyright(C) Seiichi Yoshida (comet@aerith.net). All rights reserved.